[[{"header":{"parameterUnit":"m.s-1","parameterCategory":1,"la1":30.2991,"la2":30.254,"lo1":-89.0895,"lo2":-89.0444,"dy":0.0017,"dx":0.0017,"nx":28,"ny":28,"refTime":"2025-06-03T03:00:00:Z","depth":0,"parameterNumber":2,"parameterNumberName":"U-component_of_WINDS"},"data":[0,0,0,0,0,0,0,0,0,0,0,0,0,0,0,0,0,0,0,0,0,0,0,0,0,0,0,0,0,0,0,0,0,0,0,0,0,0,0,0,0,0,0,0,0,0,0,0,0,0,0,0,0,0,0,0,0,0,-4.6965,-4.6964,0,-4.6929,-4.6929,-4.6929,-4.6826,-4.6824,-4.6822,-4.682,-4.6785,-4.6786,-4.6787,0,0,0,0,0,0,0,0,0,0,0,0,0,-4.6948,-4.6948,-4.6965,-4.6964,-4.6964,-4.6929,-4.6929,-4.6928,-4.6827,-4.6824,-4.6821,-4.6819,-4.6784,-4.6786,-4.6787,0,0,0,0,0,0,0,0,0,0,0,0,0,-4.6938,-4.6949,-4.6965,-4.6909,-4.6904,-4.693,-4.6929,-4.6928,-4.6827,-4.6824,-4.682,-4.6817,-4.6784,-4.6785,-4.6787,-4.6865,0,0,-4.6792,-4.6793,0,0,0,0,0,0,0,0,-4.6939,-4.6939,-4.6918,-4.6913,-4.6907,-4.6879,-4.691,-4.6907,-4.6828,-4.6856,-4.682,-4.6816,-4.6819,-4.6817,-4.6818,-4.6863,-4.6862,-4.6793,-4.6794,-4.6794,-4.6795,0,0,0,0,0,0,0,-4.6939,-4.694,-4.6951,-4.6918,-4.6911,-4.6887,-4.6882,-4.6909,-4.6857,-4.6854,-4.6846,-4.6843,-4.6815,-4.6817,-4.6816,-4.6861,-4.6792,-4.6794,-4.6795,-4.6796,-4.697,-4.6973,0,0,0,0,0,0,-4.6948,-4.6941,-4.6952,-4.695,-4.6915,-4.689,-4.6884,-4.6891,-4.6856,-4.6848,-4.6846,-4.6839,-4.6815,-4.6815,-4.6815,-4.6903,-4.6794,-4.6796,-4.6797,-4.6966,-4.6971,-4.6975,0,0,0,0,0,0,-4.6948,-4.695,-4.6953,-4.6943,-4.6942,-4.6894,-4.6903,-4.6892,-4.6893,-4.685,-4.6841,-4.6857,-4.6813,-4.6812,-4.6853,-4.6901,-4.6797,-4.6798,-4.6962,-4.6968,-4.6973,-4.7081,0,0,0,0,0,0,-4.6948,-4.695,-4.6978,-4.6945,-4.6943,-4.6992,-4.6905,-4.6894,-4.6897,-4.6886,-4.6858,-4.685,-4.681,-4.6851,-4.6855,-4.6901,-4.68,-4.6957,-4.6965,-4.6971,-4.7073,-4.709,-4.7104,0,0,0,0,0,-4.6948,-4.701,-4.698,-4.6982,-4.6977,-4.6995,-4.6993,-4.6946,-4.6901,-4.6929,-4.6902,-4.6851,-4.6896,-4.6856,-4.686,-4.6907,-4.6954,-4.6963,-4.697,-4.7066,-4.7087,-4.7104,0,0,0,0,0,0,-4.705,-4.7005,-4.6971,-4.7024,-4.7014,-4.6977,-4.7011,-4.6968,-4.6971,-4.6961,-4.6902,-4.6897,-4.6946,-4.6931,-4.6888,-4.6981,-4.6917,-4.6926,-4.6989,-4.7008,-4.7023,-4.7024,-4.6801,0,0,0,0,0,-4.7079,-4.7097,-4.7057,-4.7108,-4.7105,-4.7059,-4.7065,-4.703,-4.7017,-4.7012,-4.6987,-4.6978,-4.6989,-4.6998,-4.7006,-4.7072,-4.7065,-4.7107,-4.7122,-4.7135,-4.7143,-4.7177,-4.7195,-4.7001,-4.7001,-4.7001,0,0,-4.7139,-4.7116,-4.7131,-4.7128,-4.7116,-4.7136,-4.7056,-4.7081,-4.7095,-4.7016,-4.7052,-4.7035,-4.702,-4.7074,-4.7096,-4.7063,-4.7195,-4.7145,-4.7156,-4.7156,-4.7187,-4.7206,-4.7222,-4.7007,-4.7006,-4.7005,0,0,-4.7257,-4.7242,-4.7283,-4.7274,-4.7257,-4.7227,-4.7237,-4.7208,-4.7193,-4.7229,-4.717,-4.7188,-4.7209,-4.7201,-4.72,-4.7321,-4.7274,-4.7326,-4.7404,-4.7439,-4.7454,-4.7467,-4.7509,-4.7525,-4.7334,-4.7334,-4.7334,0,-4.7333,-4.736,-4.731,-4.7339,-4.734,-4.727,-4.7312,-4.7305,-4.7293,-4.7295,-4.7258,-4.7285,-4.727,-4.7321,-4.7351,-4.7353,-4.7363,-4.7326,-4.7456,-4.7469,-4.748,-4.752,-4.7536,-4.734,-4.734,-4.7339,-4.7339,0,-4.7455,-4.7476,-4.7511,-4.75,-4.7506,-4.7542,-4.7498,-4.751,-4.7475,-4.745,-4.7489,-4.747,-4.7473,-4.7484,-4.745,-4.7531,-4.7511,-4.7466,-4.7399,-4.7506,-4.7542,-4.7557,-4.7349,-4.7347,-4.7345,-4.7344,0,0,-4.7632,-4.7596,-4.761,-4.7605,-4.7583,-4.7598,-4.7633,-4.7636,-4.7648,-4.7643,-4.7669,-4.7691,-4.765,-4.7649,-4.7615,-4.7646,-4.7742,-4.7597,-4.7596,-4.7623,-4.783,-4.7863,-4.7881,-4.7713,-4.7715,-4.7718,-4.7831,0,-4.7744,-4.7797,-4.7755,-4.7817,-4.7836,-4.7772,-4.7801,-4.7792,-4.7771,-4.7784,-4.7761,-4.7777,-4.7722,-4.7721,-4.7749,-4.7724,-4.7782,-4.7716,-4.7737,-4.7738,-4.774,-4.79,-4.7933,-4.8041,-4.7845,-4.7848,-4.7849,0,-4.7879,-4.788,-4.7944,-4.792,-4.7927,-4.7954,-4.7955,-4.7969,-4.7958,-4.7941,-4.7942,-4.79,-4.7933,-4.787,-4.7915,-4.787,-4.7877,-4.7867,-4.787,-4.7868,-4.7798,-4.7901,-4.8075,-4.809,-4.7871,-4.787,-4.7868,0,-4.8001,-4.8019,-4.806,-4.8058,-4.8031,-4.8052,-4.8042,-4.8028,-4.8034,-4.8036,-4.8039,-4.8046,-4.8049,-4.8055,-4.8017,-4.7975,-4.8067,-4.8001,-4.8053,-4.8054,-4.8072,-4.8071,-4.8248,-4.8081,-4.8081,-4.808,-4.808,0,-4.8127,-4.8169,-4.8114,-4.8139,-4.8185,-4.8137,-4.8184,-4.8167,-4.8156,-4.8177,-4.8124,-4.8146,-4.8095,-4.8112,-4.8082,-4.8124,-4.8126,-4.8113,-4.8104,-4.8116,-4.8118,-4.8118,-4.8108,-4.8085,-4.8084,-4.8083,-4.8082,0,-4.8269,-4.8235,-4.8275,-4.8248,-4.8242,-4.8276,-4.8253,-4.8276,-4.8253,-4.8281,-4.8285,-4.8248,-4.8265,-4.8229,-4.8241,-4.8221,-4.828,-4.826,-4.8283,-4.8276,-4.833,-4.8325,-4.8511,-4.8533,-4.8354,-4.8356,-4.8357,0,-4.8351,-4.8382,-4.8358,-4.8369,-4.8362,-4.838,-4.8386,-4.8342,-4.8351,-4.8343,-4.8367,-4.838,-4.8387,-4.8419,-4.8393,-4.8403,-4.8382,-4.8447,-4.8383,-4.8395,-4.8381,-4.8379,-4.8382,-4.8459,-4.8461,-4.8463,-4.8465,0,-4.85,-4.8482,-4.8492,-4.8499,-4.8508,-4.851,-4.8509,-4.8521,-4.8474,-4.8487,-4.8504,-4.8511,-4.8524,-4.8538,-4.8543,-4.8533,-4.8492,-4.8486,-4.8498,-4.8509,-4.8521,-4.8514,-4.8317,-4.8481,-4.8479,-4.8478,-4.8477,-4.8476,-4.8613,-4.8637,-4.8625,-4.864,-4.8635,-4.8636,-4.8656,-4.8636,-4.8649,-4.8656,-4.8631,-4.8654,-4.8645,-4.8647,-4.8643,-4.8661,-4.8632,-4.865,-4.8654,-4.8659,-4.8667,-4.852,-4.8662,-4.8661,-4.8661,-4.8661,-4.866,0,-4.8757,-4.8747,-4.8761,-4.8762,-4.8774,-4.8735,-4.8733,-4.8746,-4.8767,-4.8762,-4.8772,-4.8793,-4.8807,-4.8784,-4.8795,-4.8814,-4.8795,-4.8818,-4.8815,-4.8813,-4.8693,-4.868,-4.8833,-4.8833,-4.8833,-4.8833,-4.8833,-4.8833,-4.8834,-4.8873,-4.8855,-4.8893,-4.8882,-4.8905,-4.8907,-4.8908,-4.8904,-4.893,-4.8941,-4.8927,-4.8916,-4.8925,-4.8937,-4.893,-4.8936,-4.8965,-4.8952,-4.8839,-4.8822,-4.8806,-4.8793,-4.8968,-4.8968,-4.9071,-4.9072,-4.9072]},{"header":{"parameterUnit":"m.s-1","parameterCategory":1,"la1":30.2991,"la2":30.254,"lo1":-89.0895,"lo2":-89.0444,"dy":0.0017,"dx":0.0017,"nx":28,"ny":28,"refTime":"2025-06-03T03:00:00:Z","depth":0,"parameterNumber":3,"parameterNumberName":"V-component_of_WINDS"},"data":[0,0,0,0,0,0,0,0,0,0,0,0,0,0,0,0,0,0,0,0,0,0,0,0,0,0,0,0,0,0,0,0,0,0,0,0,0,0,0,0,0,0,0,0,0,0,0,0,0,0,0,0,0,0,0,0,0,0,2.0313,2.0313,0,2.0327,2.0327,2.0328,2.0358,2.0358,2.0359,2.036,2.037,2.037,2.037,0,0,0,0,0,0,0,0,0,0,0,0,0,2.031,2.031,2.0313,2.0313,2.0314,2.0327,2.0327,2.0328,2.0358,2.0358,2.0359,2.036,2.037,2.037,2.037,0,0,0,0,0,0,0,0,0,0,0,0,0,2.0317,2.031,2.0313,2.033,2.0332,2.0327,2.0327,2.0328,2.0358,2.0358,2.0359,2.036,2.037,2.037,2.0369,2.0348,0,0,2.0368,2.0368,0,0,0,0,0,0,0,0,2.0316,2.0317,2.0328,2.0329,2.0331,2.0342,2.033,2.0334,2.0357,2.0348,2.036,2.0361,2.036,2.036,2.0361,2.0348,2.0349,2.0368,2.0368,2.0368,2.0367,0,0,0,0,0,0,0,2.0316,2.0316,2.0319,2.0328,2.033,2.0337,2.0339,2.0331,2.0348,2.0349,2.0351,2.0352,2.0361,2.0361,2.0361,2.0349,2.0368,2.0368,2.0367,2.0367,2.0321,2.032,0,0,0,0,0,0,2.0313,2.0316,2.0318,2.0319,2.0326,2.0336,2.0338,2.0337,2.0348,2.0351,2.0352,2.0354,2.0361,2.0362,2.0362,2.0338,2.0368,2.0367,2.0367,2.0322,2.0321,2.032,0,0,0,0,0,0,2.0313,2.0313,2.0318,2.0318,2.0319,2.0335,2.0334,2.0337,2.0337,2.0351,2.0353,2.0349,2.0362,2.0362,2.0352,2.0338,2.0367,2.0367,2.0323,2.0322,2.032,2.0289,0,0,0,0,0,0,2.0313,2.0313,2.0305,2.0318,2.0319,2.0308,2.0333,2.0337,2.0337,2.034,2.0349,2.0351,2.0363,2.0352,2.0351,2.0338,2.0366,2.0324,2.0323,2.0321,2.0291,2.0287,2.0283,0,0,0,0,0,2.0313,2.0295,2.0305,2.0305,2.031,2.0307,2.0308,2.0323,2.0336,2.0328,2.0337,2.0351,2.034,2.0351,2.035,2.0337,2.0325,2.0323,2.0321,2.0293,2.0288,2.0283,0,0,0,0,0,0,2.0278,2.0296,2.0308,2.0293,2.0299,2.0312,2.0303,2.0316,2.0317,2.0319,2.0337,2.0339,2.0326,2.033,2.0342,2.0317,2.0335,2.0333,2.0314,2.0309,2.0305,2.0303,2.0366,0,0,0,0,0,2.0269,2.0267,2.0282,2.0268,2.0271,2.0286,2.0285,2.0297,2.0302,2.0304,2.0312,2.0316,2.0314,2.0312,2.0311,2.0293,2.0295,2.0283,2.0279,2.0276,2.0273,2.0264,2.0259,2.0313,2.0313,2.0313,0,0,2.025,2.026,2.0257,2.0262,2.0267,2.0263,2.0288,2.0282,2.0279,2.0303,2.0294,2.03,2.0306,2.0292,2.0286,2.0295,2.0259,2.0273,2.027,2.0269,2.0262,2.0256,2.0252,2.0311,2.0312,2.0312,0,0,2.0213,2.022,2.021,2.0216,2.0224,2.0235,2.0233,2.0245,2.025,2.0242,2.026,2.0257,2.0252,2.0256,2.0257,2.0225,2.0237,2.0224,2.0201,2.0192,2.0188,2.0184,2.0172,2.0168,2.0221,2.0221,2.0221,0,2.0188,2.0183,2.0202,2.0196,2.0198,2.0222,2.0211,2.0215,2.0222,2.0223,2.0234,2.023,2.0235,2.0223,2.0215,2.0215,2.0213,2.0222,2.0187,2.0184,2.0181,2.017,2.0165,2.0219,2.0219,2.022,2.022,0,2.0152,2.0149,2.0139,2.0148,2.0148,2.014,2.0157,2.0156,2.0168,2.0177,2.0169,2.0177,2.0178,2.0176,2.0187,2.0165,2.0171,2.0184,2.0203,2.0173,2.0163,2.0159,2.0217,2.0217,2.0218,2.0218,0,0,2.0091,2.0112,2.0108,2.0113,2.0125,2.0123,2.0116,2.0119,2.0117,2.0122,2.0116,2.0113,2.0126,2.0128,2.014,2.0132,2.0106,2.0147,2.0147,2.0139,2.0083,2.0072,2.0067,2.0116,2.0115,2.0114,2.0083,0,2.0057,2.0047,2.0064,2.005,2.0048,2.0071,2.0065,2.0072,2.0082,2.008,2.009,2.0088,2.0106,2.0107,2.0101,2.0111,2.0095,2.0113,2.011,2.0109,2.0106,2.0062,2.005,2.002,2.0079,2.0078,2.0078,0,2.0014,2.0019,2.0004,2.002,2.0019,2.0013,2.0018,2.0017,2.0025,2.0033,2.0036,2.0051,2.0045,2.0064,2.0055,2.0067,2.0067,2.0072,2.0071,2.007,2.0091,2.0059,2.001,2.0005,2.0072,2.0072,2.0073,0,1.9971,1.9974,1.9966,1.9969,1.9986,1.9982,1.9989,1.9998,1.9999,2.0004,2.0004,2.0007,2.0008,2.001,2.0025,2.0038,2.0015,2.0035,2.002,2.002,2.0013,2.0013,1.9963,2.0014,2.0014,2.0015,2.0015,0,1.993,1.992,1.9947,1.9942,1.9932,1.9953,1.9942,1.9951,1.996,1.9957,1.9978,1.9974,1.9995,1.9994,2.0006,1.9997,1.9997,2.0003,2.0006,2.0,2.0,1.9999,2.0002,2.0013,2.0014,2.0014,2.0014,0,1.9879,1.9897,1.989,1.9908,1.9913,1.9904,1.9919,1.9915,1.9927,1.9923,1.9923,1.9941,1.9941,1.9957,1.9959,1.9967,1.9953,1.996,1.9951,1.9953,1.9937,1.9938,1.9884,1.9878,1.9934,1.9933,1.9933,0,1.9851,1.9845,1.9863,1.9863,1.9869,1.9869,1.9871,1.9892,1.9893,1.9903,1.9898,1.99,1.9902,1.99,1.9913,1.9915,1.9922,1.9903,1.9922,1.9918,1.9921,1.9921,1.9921,1.9899,1.9898,1.9897,1.9897,0,1.98,1.9809,1.9812,1.9818,1.982,1.9825,1.9832,1.9831,1.9854,1.9854,1.9855,1.9857,1.9861,1.9862,1.9867,1.9873,1.9889,1.9891,1.9888,1.9882,1.9876,1.9879,1.9939,1.9892,1.9892,1.9893,1.9893,1.9893,1.9759,1.9755,1.9767,1.977,1.9778,1.9784,1.9781,1.9794,1.9796,1.9801,1.9813,1.9812,1.9822,1.9831,1.9836,1.9835,1.9845,1.984,1.9839,1.9837,1.9834,1.9877,1.9836,1.9837,1.9837,1.9837,1.9837,0,1.9708,1.9718,1.9721,1.973,1.9732,1.9749,1.9758,1.9758,1.9757,1.9766,1.9769,1.977,1.9772,1.9786,1.979,1.9787,1.9794,1.9787,1.9787,1.9788,1.9825,1.9828,1.9781,1.9781,1.9781,1.9781,1.9781,1.9781,1.9682,1.9676,1.9688,1.9686,1.9695,1.9696,1.9699,1.9705,1.9713,1.9714,1.9716,1.9726,1.9737,1.9742,1.9745,1.9749,1.9749,1.9739,1.9745,1.978,1.9785,1.979,1.9793,1.9739,1.9739,1.9708,1.9708,1.9708]}]]